Time,TemperatureF,DewpointF,PressureIn,WindDirection,WindDirectionDegrees,WindSpeedMPH,WindSpeedGustMPH,Humidity,HourlyPrecipIn,Conditions,Clouds,dailyrainin,SoftwareType,DateUTC
2013-03-27 00:05:00,38.2,29.3,30.03,NW,316,0.0,0.0,70,0.00,,,0.00,Wunderground v.1.15,2013-03-27 04:05:00,
2013-03-27 00:09:00,38.2,28.9,30.03,NW,316,0.0,0.0,69,0.00,,,0.00,Wunderground v.1.15,2013-03-27 04:09:00,
2013-03-27 00:14:00,38.2,28.9,30.04,NW,316,0.0,0.0,69,0.00,,,0.00,Wunderground v.1.15,2013-03-27 04:14:00,
2013-03-27 00:24:00,38.3,29.4,30.04,West,262,0.0,0.0,70,0.00,,,0.00,Wunderground v.1.15,2013-03-27 04:24:00,
2013-03-27 00:29:00,38.4,29.5,30.04,West,262,0.0,0.0,70,0.00,,,0.00,Wunderground v.1.15,2013-03-27 04:29:00,
2013-03-27 00:39:00,38.3,29.4,30.04,WNW,291,0.0,0.0,70,0.00,,,0.00,Wunderground v.1.15,2013-03-27 04:39:00,
2013-03-27 00:49:00,38.3,29.4,30.04,WNW,289,0.0,0.0,70,0.00,,,0.00,Wunderground v.1.15,2013-03-27 04:49:00,
2013-03-27 00:54:00,38.2,29.3,30.04,WNW,289,0.0,0.0,70,0.00,,,0.00,Wunderground v.1.15,2013-03-27 04:54:00,
2013-03-27 01:05:00,37.9,29.0,30.04,WNW,289,0.0,0.0,70,0.00,,,0.00,Wunderground v.1.15,2013-03-27 05:05:00,
2013-03-27 01:14:00,37.8,29.2,30.04,WNW,289,0.0,0.0,71,0.00,,,0.00,Wunderground v.1.15,2013-03-27 05:14:00,
2013-03-27 01:24:00,38.0,29.4,30.04,West,281,0.0,0.0,71,0.00,,,0.00,Wunderground v.1.15,2013-03-27 05:24:00,
2013-03-27 01:29:00,38.0,29.4,30.04,WNW,286,1.0,1.0,71,0.00,,,0.00,Wunderground v.1.15,2013-03-27 05:29:00,
2013-03-27 01:39:00,38.0,29.4,30.04,WNW,291,0.0,0.0,71,0.00,,,0.00,Wunderground v.1.15,2013-03-27 05:39:00,
2013-03-27 01:44:00,38.0,29.4,30.04,NNW,330,1.0,1.0,71,0.00,,,0.00,Wunderground v.1.15,2013-03-27 05:44:00,
2013-03-27 01:54:00,38.1,29.5,30.04,NW,309,0.0,1.0,71,0.00,,,0.00,Wunderground v.1.15,2013-03-27 05:54:00,
2013-03-27 01:59:00,38.1,29.5,30.04,WNW,303,0.0,0.0,71,0.00,,,0.00,Wunderground v.1.15,2013-03-27 05:59:00,
2013-03-27 02:04:00,38.2,29.6,30.04,NW,304,0.0,0.0,71,0.00,,,0.00,Wunderground v.1.15,2013-03-27 06:04:00,
2013-03-27 02:14:00,38.1,29.9,30.04,NNW,339,0.0,0.0,72,0.00,,,0.00,Wunderground v.1.15,2013-03-27 06:14:00,
2013-03-27 02:19:00,37.9,29.7,30.04,NNW,339,0.0,0.0,72,0.00,,,0.00,Wunderground v.1.15,2013-03-27 06:19:00,
2013-03-27 02:29:00,37.6,29.4,30.04,NNW,339,0.0,0.0,72,0.00,,,0.00,Wunderground v.1.15,2013-03-27 06:29:00,
2013-03-27 02:34:00,37.5,29.6,30.04,NNW,341,0.0,0.0,73,0.00,,,0.00,Wunderground v.1.15,2013-03-27 06:34:00,
2013-03-27 02:44:00,37.8,29.9,30.04,WNW,283,1.0,1.0,73,0.00,,,0.00,Wunderground v.1.15,2013-03-27 06:44:00,
2013-03-27 02:49:00,37.7,29.8,30.04,NW,322,1.0,1.0,73,0.00,,,0.00,Wunderground v.1.15,2013-03-27 06:49:00,
2013-03-27 02:59:00,37.6,29.7,30.04,NW,326,0.0,0.0,73,0.00,,,0.00,Wunderground v.1.15,2013-03-27 06:59:00,
2013-03-27 03:05:00,37.6,29.7,30.04,NNW,328,1.0,2.0,73,0.00,,,0.00,Wunderground v.1.15,2013-03-27 07:05:00,
2013-03-27 03:14:00,37.6,29.0,30.04,NNW,341,1.0,1.0,71,0.00,,,0.00,Wunderground v.1.15,2013-03-27 07:14:00,
2013-03-27 03:24:00,37.6,29.0,30.04,NW,318,0.0,1.0,71,0.00,,,0.00,Wunderground v.1.15,2013-03-27 07:24:00,
2013-03-27 03:34:00,37.2,28.7,30.04,NW,318,0.0,2.0,71,0.00,,,0.00,Wunderground v.1.15,2013-03-27 07:34:00,
2013-03-27 03:39:00,37.0,28.5,30.04,NW,318,0.0,0.0,71,0.00,,,0.00,Wunderground v.1.15,2013-03-27 07:39:00,
2013-03-27 03:49:00,36.6,28.4,30.04,NW,316,0.0,0.0,72,0.00,,,0.00,Wunderground v.1.15,2013-03-27 07:49:00,
2013-03-27 03:54:00,36.5,28.3,30.04,WNW,291,0.0,0.0,72,0.00,,,0.00,Wunderground v.1.15,2013-03-27 07:54:00,
2013-03-27 03:59:00,36.5,28.3,30.04,WNW,288,1.0,1.0,72,0.00,,,0.00,Wunderground v.1.15,2013-03-27 07:59:00,
2013-03-27 04:05:00,36.6,28.4,30.04,NW,309,0.0,1.0,72,0.00,,,0.00,Wunderground v.1.15,2013-03-27 08:05:00,
2013-03-27 04:14:00,36.4,28.2,30.04,East,83,0.0,1.0,72,0.00,,,0.00,Wunderground v.1.15,2013-03-27 08:14:00,
2013-03-27 04:19:00,36.4,27.9,30.04,East,83,0.0,0.0,71,0.00,,,0.00,Wunderground v.1.15,2013-03-27 08:19:00,
2013-03-27 04:29:00,36.2,27.7,30.04,East,82,0.0,0.0,71,0.00,,,0.00,Wunderground v.1.15,2013-03-27 08:29:00,
2013-03-27 04:39:00,36.1,27.6,30.04,North,354,0.0,0.0,71,0.00,,,0.00,Wunderground v.1.15,2013-03-27 08:39:00,
2013-03-27 04:44:00,36.2,27.7,30.04,North,4,0.0,0.0,71,0.00,,,0.00,Wunderground v.1.15,2013-03-27 08:44:00,
2013-03-27 04:54:00,36.2,27.0,30.04,North,4,0.0,0.0,69,0.00,,,0.00,Wunderground v.1.15,2013-03-27 08:54:00,
2013-03-27 04:59:00,36.3,26.7,30.04,North,4,0.0,0.0,68,0.00,,,0.00,Wunderground v.1.15,2013-03-27 08:59:00,
2013-03-27 05:04:00,36.2,26.6,30.04,North,4,0.0,0.0,68,0.00,,,0.00,Wunderground v.1.15,2013-03-27 09:04:00,
2013-03-27 05:14:00,36.1,26.6,30.04,WNW,303,0.0,1.0,68,0.00,,,0.00,Wunderground v.1.15,2013-03-27 09:14:00,
2013-03-27 05:19:00,36.2,26.6,30.04,NW,305,0.0,0.0,68,0.00,,,0.00,Wunderground v.1.15,2013-03-27 09:19:00,
2013-03-27 05:24:00,35.9,26.7,30.04,SW,230,0.0,0.0,69,0.00,,,0.00,Wunderground v.1.15,2013-03-27 09:24:00,
2013-03-27 05:34:00,35.1,26.3,30.04,SW,230,0.0,0.0,70,0.00,,,0.00,Wunderground v.1.15,2013-03-27 09:34:00,
2013-03-27 05:39:00,34.5,25.7,30.04,SW,230,0.0,0.0,70,0.00,,,0.00,Wunderground v.1.15,2013-03-27 09:39:00,
2013-03-27 05:49:00,34.4,26.6,30.04,SW,230,0.0,0.0,73,0.00,,,0.00,Wunderground v.1.15,2013-03-27 09:49:00,
2013-03-27 05:59:00,33.8,26.1,30.04,SW,230,0.0,0.0,73,0.00,,,0.00,Wunderground v.1.15,2013-03-27 09:59:00,
2013-03-27 06:05:00,33.7,26.0,30.05,SW,230,0.0,0.0,73,0.00,,,0.00,Wunderground v.1.15,2013-03-27 10:05:00,
2013-03-27 06:14:00,33.4,26.0,30.05,SW,230,0.0,0.0,74,0.00,,,0.00,Wunderground v.1.15,2013-03-27 10:14:00,
2013-03-27 06:24:00,33.6,25.9,30.06,SW,230,0.0,0.0,73,0.00,,,0.00,Wunderground v.1.15,2013-03-27 10:24:00,
2013-03-27 06:29:00,33.7,25.6,30.06,SW,230,0.0,0.0,72,0.00,,,0.00,Wunderground v.1.15,2013-03-27 10:29:00,
2013-03-27 06:39:00,33.6,25.9,30.06,SW,230,0.0,0.0,73,0.00,,,0.00,Wunderground v.1.15,2013-03-27 10:39:00,
2013-03-27 06:44:00,33.1,26.0,30.06,SW,228,0.0,0.0,75,0.00,,,0.00,Wunderground v.1.15,2013-03-27 10:44:00,
2013-03-27 06:54:00,33.0,25.3,30.06,SW,228,0.0,0.0,73,0.00,,,0.00,Wunderground v.1.15,2013-03-27 10:54:00,
2013-03-27 06:59:00,33.0,25.6,30.06,SW,228,0.0,0.0,74,0.00,,,0.00,Wunderground v.1.15,2013-03-27 10:59:00,
2013-03-27 07:04:00,33.1,25.4,30.06,SSW,192,0.0,0.0,73,0.00,,,0.00,Wunderground v.1.15,2013-03-27 11:04:00,
2013-03-27 07:14:00,34.2,26.1,30.06,NW,306,1.0,2.0,72,0.00,,,0.00,Wunderground v.1.15,2013-03-27 11:14:00,
2013-03-27 07:19:00,34.2,26.1,30.06,WSW,240,0.0,0.0,72,0.00,,,0.00,Wunderground v.1.15,2013-03-27 11:19:00,
2013-03-27 07:29:00,34.4,26.6,30.06,WSW,237,0.0,1.0,73,0.00,,,0.00,Wunderground v.1.15,2013-03-27 11:29:00,
2013-03-27 07:34:00,34.1,26.0,30.06,WSW,245,0.0,1.0,72,0.00,,,0.00,Wunderground v.1.15,2013-03-27 11:34:00,
2013-03-27 07:44:00,34.3,26.2,30.07,West,276,0.0,0.0,72,0.00,,,0.00,Wunderground v.1.15,2013-03-27 11:44:00,
2013-03-27 07:49:00,34.4,26.6,30.06,WSW,241,0.0,0.0,73,0.00,,,0.00,Wunderground v.1.15,2013-03-27 11:49:00,
2013-03-27 07:59:00,34.8,26.7,30.07,South,177,0.0,0.0,72,0.00,,,0.00,Wunderground v.1.15,2013-03-27 11:59:00,
2013-03-27 08:05:00,35.2,26.7,30.07,WSW,257,0.0,1.0,71,0.00,,,0.00,Wunderground v.1.15,2013-03-27 12:05:00,
2013-03-27 08:14:00,36.1,27.3,30.08,SSW,210,1.0,3.0,70,0.00,,,0.00,Wunderground v.1.15,2013-03-27 12:14:00,
2013-03-27 08:19:00,36.5,27.6,30.07,NNW,329,1.0,1.0,70,0.00,,,0.00,Wunderground v.1.15,2013-03-27 12:19:00,
2013-03-27 08:24:00,36.7,27.5,30.07,WNW,287,0.0,4.0,69,0.00,,,0.00,Wunderground v.1.15,2013-03-27 12:24:00,
2013-03-27 08:34:00,37.1,27.5,30.08,NW,308,1.0,1.0,68,0.00,,,0.00,Wunderground v.1.15,2013-03-27 12:34:00,
2013-03-27 08:39:00,37.4,27.4,30.08,SW,228,1.0,1.0,67,0.00,,,0.00,Wunderground v.1.15,2013-03-27 12:39:00,
2013-03-27 08:49:00,38.1,28.1,30.08,East,96,1.0,1.0,67,0.00,,,0.00,Wunderground v.1.15,2013-03-27 12:49:00,
2013-03-27 08:59:00,38.7,28.3,30.09,WNW,289,0.0,3.0,66,0.00,,,0.00,Wunderground v.1.15,2013-03-27 12:59:00,
2013-03-27 09:05:00,39.1,27.9,30.09,NW,313,1.0,3.0,64,0.00,,,0.00,Wunderground v.1.15,2013-03-27 13:05:00,
2013-03-27 09:14:00,39.9,28.7,30.09,WNW,283,1.0,1.0,64,0.00,,,0.00,Wunderground v.1.15,2013-03-27 13:14:00,
2013-03-27 09:19:00,40.4,28.4,30.09,West,267,1.0,1.0,62,0.00,,,0.00,Wunderground v.1.15,2013-03-27 13:19:00,
2013-03-27 09:24:00,40.9,28.1,30.09,West,268,2.0,8.0,60,0.00,,,0.00,Wunderground v.1.15,2013-03-27 13:24:00,
2013-03-27 09:34:00,41.6,28.7,30.09,North,349,2.0,5.0,60,0.00,,,0.00,Wunderground v.1.15,2013-03-27 13:34:00,
2013-03-27 09:39:00,41.8,28.5,30.09,WNW,302,2.0,2.0,59,0.00,,,0.00,Wunderground v.1.15,2013-03-27 13:39:00,
2013-03-27 09:49:00,42.3,27.7,30.09,North,354,2.0,2.0,56,0.00,,,0.00,Wunderground v.1.15,2013-03-27 13:49:00,
2013-03-27 09:59:00,42.7,28.5,30.09,West,272,3.0,3.0,57,0.00,,,0.00,Wunderground v.1.15,2013-03-27 13:59:00,
2013-03-27 10:05:00,42.9,28.3,30.10,West,272,3.0,3.0,56,0.00,,,0.00,Wunderground v.1.15,2013-03-27 14:05:00,
2013-03-27 10:14:00,43.4,28.7,30.10,South,174,3.0,3.0,56,0.00,,,0.00,Wunderground v.1.15,2013-03-27 14:14:00,
2013-03-27 10:19:00,43.8,29.5,30.10,NW,316,2.0,3.0,57,0.00,,,0.00,Wunderground v.1.15,2013-03-27 14:19:00,
2013-03-27 10:24:00,44.2,29.9,30.10,West,274,2.0,3.0,57,0.00,,,0.00,Wunderground v.1.15,2013-03-27 14:24:00,
2013-03-27 10:34:00,44.1,28.5,30.10,NW,304,4.0,4.0,54,0.00,,,0.00,Wunderground v.1.15,2013-03-27 14:34:00,
2013-03-27 10:39:00,44.6,29.4,30.10,NNW,339,3.0,3.0,55,0.00,,,0.00,Wunderground v.1.15,2013-03-27 14:39:00,
2013-03-27 10:49:00,44.9,29.2,30.09,NNE,27,4.0,4.0,54,0.00,,,0.00,Wunderground v.1.15,2013-03-27 14:49:00,
2013-03-27 10:54:00,45.2,29.5,30.10,SSW,193,3.0,7.0,54,0.00,,,0.00,Wunderground v.1.15,2013-03-27 14:54:00,
2013-03-27 11:04:00,45.6,27.5,30.09,NW,317,5.0,8.0,49,0.00,,,0.00,Wunderground v.1.15,2013-03-27 15:04:00,
2013-03-27 11:14:00,45.7,28.1,30.09,North,359,6.0,6.0,50,0.00,,,0.00,Wunderground v.1.15,2013-03-27 15:14:00,
2013-03-27 11:24:00,45.6,27.5,30.09,WNW,303,5.0,6.0,49,0.00,,,0.00,Wunderground v.1.15,2013-03-27 15:24:00,
2013-03-27 11:29:00,45.7,27.6,30.09,NW,318,5.0,5.0,49,0.00,,,0.00,Wunderground v.1.15,2013-03-27 15:29:00,
2013-03-27 11:39:00,45.9,29.2,30.09,North,350,5.0,7.0,52,0.00,,,0.00,Wunderground v.1.15,2013-03-27 15:39:00,
2013-03-27 11:44:00,46.0,27.9,30.10,West,278,5.0,7.0,49,0.00,,,0.00,Wunderground v.1.15,2013-03-27 15:44:00,
2013-03-27 11:49:00,46.1,28.5,30.10,NNW,332,6.0,10.0,50,0.00,,,0.00,Wunderground v.1.15,2013-03-27 15:49:00,
2013-03-27 11:59:00,46.4,29.2,30.10,North,350,5.0,5.0,51,0.00,,,0.00,Wunderground v.1.15,2013-03-27 15:59:00,
2013-03-27 12:04:00,47.0,29.3,30.10,North,354,4.0,5.0,50,0.00,,,0.00,Wunderground v.1.15,2013-03-27 16:04:00,
2013-03-27 12:14:00,46.9,27.7,30.09,North,354,5.0,5.0,47,0.00,,,0.00,Wunderground v.1.15,2013-03-27 16:14:00,
2013-03-27 12:19:00,46.4,28.3,30.10,WSW,251,4.0,4.0,49,0.00,,,0.00,Wunderground v.1.15,2013-03-27 16:19:00,
2013-03-27 12:24:00,46.4,28.3,30.10,WNW,303,3.0,4.0,49,0.00,,,0.00,Wunderground v.1.15,2013-03-27 16:24:00,
2013-03-27 12:34:00,47.0,28.3,30.10,NW,322,5.0,10.0,48,0.00,,,0.00,Wunderground v.1.15,2013-03-27 16:34:00,
2013-03-27 12:44:00,47.7,28.4,30.10,NW,324,5.0,8.0,47,0.00,,,0.00,Wunderground v.1.15,2013-03-27 16:44:00,
2013-03-27 12:49:00,48.1,30.8,30.10,North,4,4.0,10.0,51,0.00,,,0.00,Wunderground v.1.15,2013-03-27 16:49:00,
2013-03-27 12:59:00,48.2,29.4,30.10,North,354,4.0,4.0,48,0.00,,,0.00,Wunderground v.1.15,2013-03-27 16:59:00,
2013-03-27 13:05:00,48.3,30.0,30.09,NNW,329,4.0,4.0,49,0.00,,,0.00,Wunderground v.1.15,2013-03-27 17:05:00,
2013-03-27 13:14:00,48.3,29.0,30.09,WNW,297,4.0,6.0,47,0.00,,,0.00,Wunderground v.1.15,2013-03-27 17:14:00,
2013-03-27 13:24:00,47.6,28.3,30.09,North,359,5.0,5.0,47,0.00,,,0.00,Wunderground v.1.15,2013-03-27 17:24:00,
2013-03-27 13:34:00,46.8,26.6,30.10,North,354,5.0,7.0,45,0.00,,,0.00,Wunderground v.1.15,2013-03-27 17:34:00,
2013-03-27 13:39:00,46.8,28.1,30.09,North,354,4.0,4.0,48,0.00,,,0.00,Wunderground v.1.15,2013-03-27 17:39:00,
2013-03-27 13:49:00,47.6,28.3,30.09,NNW,345,5.0,6.0,47,0.00,,,0.00,Wunderground v.1.15,2013-03-27 17:49:00,
2013-03-27 13:54:00,47.6,28.3,30.09,NNE,28,5.0,6.0,47,0.00,,,0.00,Wunderground v.1.15,2013-03-27 17:54:00,
2013-03-27 14:05:00,48.7,28.3,30.09,NE,39,5.0,5.0,45,0.00,,,0.00,Wunderground v.1.15,2013-03-27 18:05:00,
2013-03-27 14:14:00,48.4,28.5,30.10,NE,41,4.0,5.0,46,0.00,,,0.00,Wunderground v.1.15,2013-03-27 18:14:00,
2013-03-27 14:24:00,47.8,30.0,30.09,NNW,335,4.0,4.0,50,0.00,,,0.00,Wunderground v.1.15,2013-03-27 18:24:00,
2013-03-27 14:29:00,48.2,27.3,30.09,NW,324,6.0,6.0,44,0.00,,,0.00,Wunderground v.1.15,2013-03-27 18:29:00,
2013-03-27 14:39:00,48.7,28.3,30.09,North,8,5.0,7.0,45,0.00,,,0.00,Wunderground v.1.15,2013-03-27 18:39:00,
2013-03-27 14:44:00,49.0,30.1,30.09,NW,310,5.0,7.0,48,0.00,,,0.00,Wunderground v.1.15,2013-03-27 18:44:00,
2013-03-27 14:54:00,49.3,29.9,30.08,NE,52,4.0,6.0,47,0.00,,,0.00,Wunderground v.1.15,2013-03-27 18:54:00,
2013-03-27 15:04:00,50.4,28.7,30.09,WNW,291,4.0,4.0,43,0.00,,,0.00,Wunderground v.1.15,2013-03-27 19:04:00,
2013-03-27 15:14:00,48.1,28.3,30.09,NNW,331,6.0,6.0,46,0.00,,,0.00,Wunderground v.1.15,2013-03-27 19:14:00,
2013-03-27 15:19:00,47.0,27.8,30.09,West,274,5.0,9.0,47,0.00,,,0.00,Wunderground v.1.15,2013-03-27 19:19:00,
2013-03-27 15:29:00,46.8,26.6,30.08,North,354,6.0,7.0,45,0.00,,,0.00,Wunderground v.1.15,2013-03-27 19:29:00,
2013-03-27 15:34:00,46.8,26.6,30.08,West,262,5.0,7.0,45,0.00,,,0.00,Wunderground v.1.15,2013-03-27 19:34:00,
2013-03-27 15:44:00,48.1,28.3,30.08,North,349,4.0,5.0,46,0.00,,,0.00,Wunderground v.1.15,2013-03-27 19:44:00,
2013-03-27 15:49:00,48.7,27.7,30.08,SE,135,3.0,4.0,44,0.00,,,0.00,Wunderground v.1.15,2013-03-27 19:49:00,
2013-03-27 15:59:00,47.6,27.3,30.09,NNW,328,3.0,3.0,45,0.00,,,0.00,Wunderground v.1.15,2013-03-27 19:59:00,
2013-03-27 16:05:00,47.0,27.3,30.09,NNW,336,3.0,4.0,46,0.00,,,0.00,Wunderground v.1.15,2013-03-27 20:05:00,
2013-03-27 16:14:00,45.7,27.1,30.09,NNW,345,5.0,11.0,48,0.00,,,0.00,Wunderground v.1.15,2013-03-27 20:14:00,
2013-03-27 16:20:00,45.2,28.1,30.09,NNW,339,6.0,7.0,51,0.00,,,0.00,Wunderground v.1.15,2013-03-27 20:20:00,
2013-03-27 16:25:00,45.0,27.5,30.09,NW,315,4.0,7.0,50,0.00,,,0.00,Wunderground v.1.15,2013-03-27 20:25:00,
2013-03-27 16:35:00,45.2,27.6,30.09,NNW,335,3.0,4.0,50,0.00,,,0.00,Wunderground v.1.15,2013-03-27 20:35:00,
2013-03-27 16:40:00,45.2,27.2,30.09,NNW,332,3.0,4.0,49,0.00,,,0.00,Wunderground v.1.15,2013-03-27 20:40:00,
2013-03-27 16:50:00,45.1,26.6,30.09,WNW,299,4.0,4.0,48,0.00,,,0.00,Wunderground v.1.15,2013-03-27 20:50:00,
2013-03-27 16:55:00,45.0,26.5,30.09,North,359,5.0,5.0,48,0.00,,,0.00,Wunderground v.1.15,2013-03-27 20:55:00,
2013-03-27 17:05:00,44.9,26.9,30.09,North,354,5.0,5.0,49,0.00,,,0.00,Wunderground v.1.15,2013-03-27 21:05:00,
2013-03-27 17:15:00,44.9,26.9,30.09,NW,320,3.0,4.0,49,0.00,,,0.00,Wunderground v.1.15,2013-03-27 21:15:00,
2013-03-27 17:20:00,45.1,25.5,30.09,NE,37,3.0,3.0,46,0.00,,,0.00,Wunderground v.1.15,2013-03-27 21:20:00,
2013-03-27 17:30:00,45.1,25.5,30.09,NW,326,3.0,3.0,46,0.00,,,0.00,Wunderground v.1.15,2013-03-27 21:30:00,
2013-03-27 17:35:00,45.2,26.7,30.10,WNW,291,4.0,4.0,48,0.00,,,0.00,Wunderground v.1.15,2013-03-27 21:35:00,
2013-03-27 17:45:00,45.1,26.1,30.10,WNW,295,4.0,4.0,47,0.00,,,0.00,Wunderground v.1.15,2013-03-27 21:45:00,
2013-03-27 17:55:00,45.1,26.1,30.10,NNE,13,4.0,4.0,47,0.00,,,0.00,Wunderground v.1.15,2013-03-27 21:55:00,
2013-03-27 18:00:00,45.1,26.1,30.10,NNW,339,3.0,3.0,47,0.00,,,0.00,Wunderground v.1.15,2013-03-27 22:00:00,
2013-03-27 18:05:00,45.0,26.5,30.10,NNW,337,3.0,3.0,48,0.00,,,0.00,Wunderground v.1.15,2013-03-27 22:05:00,
2013-03-27 18:15:00,45.0,26.5,30.10,NNW,331,2.0,7.0,48,0.00,,,0.00,Wunderground v.1.15,2013-03-27 22:15:00,
2013-03-27 18:20:00,44.7,26.2,30.10,NW,312,2.0,2.0,48,0.00,,,0.00,Wunderground v.1.15,2013-03-27 22:20:00,
2013-03-27 18:25:00,44.5,26.5,30.10,WSW,241,2.0,2.0,49,0.00,,,0.00,Wunderground v.1.15,2013-03-27 22:25:00,
2013-03-27 18:35:00,44.3,25.8,30.10,NNW,340,2.0,2.0,48,0.00,,,0.00,Wunderground v.1.15,2013-03-27 22:35:00,
2013-03-27 18:45:00,44.3,26.3,30.10,NNW,340,2.0,5.0,49,0.00,,,0.00,Wunderground v.1.15,2013-03-27 22:45:00,
2013-03-27 18:50:00,44.2,26.2,30.11,NNW,336,2.0,2.0,49,0.00,,,0.00,Wunderground v.1.15,2013-03-27 22:50:00,
2013-03-27 18:55:00,44.0,26.5,30.11,NNW,333,2.0,2.0,50,0.00,,,0.00,Wunderground v.1.15,2013-03-27 22:55:00,
2013-03-27 19:06:00,43.6,26.2,30.11,North,354,1.0,3.0,50,0.00,,,0.00,Wunderground v.1.15,2013-03-27 23:06:00,
2013-03-27 19:15:00,43.5,26.1,30.12,NW,316,2.0,2.0,50,0.00,,,0.00,Wunderground v.1.15,2013-03-27 23:15:00,
2013-03-27 19:25:00,43.4,26.0,30.11,NW,318,1.0,2.0,50,0.00,,,0.00,Wunderground v.1.15,2013-03-27 23:25:00,
2013-03-27 19:35:00,43.0,25.6,30.12,NNW,339,1.0,1.0,50,0.00,,,0.00,Wunderground v.1.15,2013-03-27 23:35:00,
2013-03-27 19:40:00,42.8,25.9,30.13,West,263,1.0,1.0,51,0.00,,,0.00,Wunderground v.1.15,2013-03-27 23:40:00,
2013-03-27 19:50:00,42.5,26.1,30.13,NW,326,1.0,1.0,52,0.00,,,0.00,Wunderground v.1.15,2013-03-27 23:50:00,
2013-03-27 19:55:00,42.3,26.4,30.13,WNW,288,1.0,1.0,53,0.00,,,0.00,Wunderground v.1.15,2013-03-27 23:55:00,
2013-03-27 20:05:00,41.9,26.4,30.13,NW,324,0.0,1.0,54,0.00,,,0.00,Wunderground v.1.15,2013-03-28 00:05:00,
2013-03-27 20:15:00,41.3,25.9,30.13,West,280,0.0,2.0,54,0.00,,,0.00,Wunderground v.1.15,2013-03-28 00:15:00,
2013-03-27 20:20:00,41.1,25.7,30.13,NW,320,0.0,2.0,54,0.00,,,0.00,Wunderground v.1.15,2013-03-28 00:20:00,
2013-03-27 20:30:00,41.1,26.1,30.14,WSW,257,1.0,1.0,55,0.00,,,0.00,Wunderground v.1.15,2013-03-28 00:30:00,
2013-03-27 20:40:00,41.0,26.1,30.14,NW,324,0.0,0.0,55,0.00,,,0.00,Wunderground v.1.15,2013-03-28 00:40:00,
2013-03-27 20:45:00,40.9,26.0,30.14,WNW,296,0.0,0.0,55,0.00,,,0.00,Wunderground v.1.15,2013-03-28 00:45:00,
2013-03-27 20:55:00,40.7,26.2,30.14,WNW,296,0.0,0.0,56,0.00,,,0.00,Wunderground v.1.15,2013-03-28 00:55:00,
2013-03-27 21:00:00,40.5,26.4,30.14,SSE,168,0.0,1.0,57,0.00,,,0.00,Wunderground v.1.15,2013-03-28 01:00:00,
2013-03-27 21:05:00,40.5,26.4,30.14,NE,43,0.0,1.0,57,0.00,,,0.00,Wunderground v.1.15,2013-03-28 01:05:00,
2013-03-27 21:15:00,40.4,26.8,30.14,NE,42,0.0,0.0,58,0.00,,,0.00,Wunderground v.1.15,2013-03-28 01:15:00,
2013-03-27 21:20:00,40.3,27.1,30.14,ENE,62,0.0,0.0,59,0.00,,,0.00,Wunderground v.1.15,2013-03-28 01:20:00,
2013-03-27 21:30:00,40.1,26.9,30.14,NNE,15,0.0,0.0,59,0.00,,,0.00,Wunderground v.1.15,2013-03-28 01:30:00,
2013-03-27 21:35:00,40.0,26.8,30.15,WNW,291,1.0,3.0,59,0.00,,,0.00,Wunderground v.1.15,2013-03-28 01:35:00,
2013-03-27 21:40:00,40.1,26.9,30.15,WNW,302,1.0,1.0,59,0.00,,,0.00,Wunderground v.1.15,2013-03-28 01:40:00,
2013-03-27 21:50:00,40.4,27.2,30.15,NNW,328,1.0,1.0,59,0.00,,,0.00,Wunderground v.1.15,2013-03-28 01:50:00,
2013-03-27 22:00:00,40.0,27.6,30.15,NNW,328,0.0,0.0,61,0.00,,,0.00,Wunderground v.1.15,2013-03-28 02:00:00,
2013-03-27 22:06:00,39.6,27.2,30.15,NNW,328,0.0,0.0,61,0.00,,,0.00,Wunderground v.1.15,2013-03-28 02:06:00,
2013-03-27 22:15:00,38.9,27.0,30.15,NNW,328,0.0,0.0,62,0.00,,,0.00,Wunderground v.1.15,2013-03-28 02:15:00,
2013-03-27 22:25:00,38.4,26.9,30.15,NNW,328,0.0,0.0,63,0.00,,,0.00,Wunderground v.1.15,2013-03-28 02:25:00,
2013-03-27 22:30:00,38.2,27.1,30.15,NNW,328,0.0,0.0,64,0.00,,,0.00,Wunderground v.1.15,2013-03-28 02:30:00,
2013-03-27 22:40:00,38.0,27.3,30.15,NNW,328,0.0,0.0,65,0.00,,,0.00,Wunderground v.1.15,2013-03-28 02:40:00,
2013-03-27 22:50:00,37.7,27.4,30.15,NNW,327,0.0,0.0,66,0.00,,,0.00,Wunderground v.1.15,2013-03-28 02:50:00,
2013-03-27 22:55:00,37.5,26.8,30.15,NNW,327,0.0,0.0,65,0.00,,,0.00,Wunderground v.1.15,2013-03-28 02:55:00,
2013-03-27 23:05:00,37.5,27.2,30.15,NNW,327,0.0,0.0,66,0.00,,,0.00,Wunderground v.1.15,2013-03-28 03:05:00,
2013-03-27 23:15:00,37.6,27.3,30.15,NW,325,0.0,0.0,66,0.00,,,0.00,Wunderground v.1.15,2013-03-28 03:15:00,
2013-03-27 23:20:00,37.4,27.1,30.15,NW,325,0.0,0.0,66,0.00,,,0.00,Wunderground v.1.15,2013-03-28 03:20:00,
2013-03-27 23:30:00,37.3,27.3,30.15,WSW,240,0.0,0.0,67,0.00,,,0.00,Wunderground v.1.15,2013-03-28 03:30:00,
2013-03-27 23:40:00,37.5,27.2,30.15,South,187,0.0,0.0,66,0.00,,,0.00,Wunderground v.1.15,2013-03-28 03:40:00,
2013-03-27 23:45:00,37.8,27.5,30.15,WNW,283,0.0,0.0,66,0.00,,,0.00,Wunderground v.1.15,2013-03-28 03:45:00,
2013-03-27 23:55:00,38.0,27.3,30.14,SSW,196,0.0,0.0,65,0.00,,,0.00,Wunderground v.1.15,2013-03-28 03:55:00,